Location: Balaclava NSW 2575, Australia
(34.4510°S, 150.4953°E)
Time: 13:19:08
(UTC+10:00)

XW-2C - Pass Details

Date: 01 August 2021
Orbit: 506 x 524 km, 97.5° (Epoch: 18 September)

Event Time Altitude Azimuth Distance (km) Brightness Sun altitude
Rises 04:43:11 0° 31° (NNE) 2,650 ? -26.6°
Reaches altitude 10° 04:45:23 10° 39° (NE) 1,770 ? -26.1°
Maximum altitude 04:48:54 36° 106° (ESE) 858 ? -25.4°
Enters shadow 04:51:26 17° 165° (SSE) 1,413 ? -24.9°
